Time,TemperatureF,DewpointF,PressureIn,WindDirection,WindDirectionDegrees,WindSpeedMPH,WindSpeedGustMPH,Humidity,HourlyPrecipIn,Conditions,Clouds,dailyrainin,SoftwareType,DateUTC
2013-03-07 00:04:00,27.1,22.6,30.37,NNE,13,3.0,4.0,83,0.00,,,0.00,Wunderground v.1.15,2013-03-07 06:04:00,
2013-03-07 00:10:00,27.2,22.7,30.37,North,358,3.0,3.0,83,0.00,,,0.00,Wunderground v.1.15,2013-03-07 06:10:00,
2013-03-07 00:16:00,27.2,22.7,30.37,North,356,3.0,7.0,83,0.00,,,0.00,Wunderground v.1.15,2013-03-07 06:16:00,
2013-03-07 00:22:00,27.1,22.6,30.37,North,350,2.0,3.0,83,0.00,,,0.00,Wunderground v.1.15,2013-03-07 06:22:00,
2013-03-07 00:27:00,27.1,22.6,30.37,North,350,2.0,3.0,83,0.00,,,0.00,Wunderground v.1.15,2013-03-07 06:27:00,
2013-03-07 00:33:00,27.1,22.6,30.37,North,350,1.0,2.0,83,0.00,,,0.00,Wunderground v.1.15,2013-03-07 06:33:00,
2013-03-07 00:39:00,27.1,22.6,30.37,North,350,0.0,2.0,83,0.00,,,0.00,Wunderground v.1.15,2013-03-07 06:39:00,
2013-03-07 00:45:00,27.0,22.5,30.37,North,350,2.0,3.0,83,0.00,,,0.00,Wunderground v.1.15,2013-03-07 06:45:00,
2013-03-07 00:51:00,27.0,22.5,30.38,NNE,27,2.0,3.0,83,0.00,,,0.00,Wunderground v.1.15,2013-03-07 06:51:00,
2013-03-07 00:57:00,27.0,22.5,30.38,NE,38,3.0,4.0,83,0.00,,,0.00,Wunderground v.1.15,2013-03-07 06:57:00,
2013-03-07 01:03:00,27.0,22.8,30.38,NE,37,2.0,3.0,84,0.00,,,0.00,Wunderground v.1.15,2013-03-07 07:03:00,
2013-03-07 01:08:00,27.1,22.9,30.38,NE,35,2.0,4.0,84,0.00,,,0.00,Wunderground v.1.15,2013-03-07 07:08:00,
2013-03-07 01:14:00,27.0,22.5,30.38,NE,36,4.0,5.0,83,0.00,,,0.00,Wunderground v.1.15,2013-03-07 07:14:00,
2013-03-07 01:20:00,27.0,22.5,30.38,NE,35,3.0,4.0,83,0.00,,,0.00,Wunderground v.1.15,2013-03-07 07:20:00,
2013-03-07 01:26:00,27.0,22.8,30.39,NE,40,2.0,4.0,84,0.00,,,0.00,Wunderground v.1.15,2013-03-07 07:26:00,
2013-03-07 01:32:00,27.0,22.8,30.39,NNE,23,3.0,6.0,84,0.00,,,0.00,Wunderground v.1.15,2013-03-07 07:32:00,
2013-03-07 01:38:00,26.9,22.4,30.39,NNE,19,2.0,6.0,83,0.00,,,0.00,Wunderground v.1.15,2013-03-07 07:38:00,
2013-03-07 01:44:00,26.9,22.4,30.39,NNE,27,1.0,2.0,83,0.00,,,0.00,Wunderground v.1.15,2013-03-07 07:44:00,
2013-03-07 01:50:00,26.9,22.7,30.39,NNE,21,1.0,1.0,84,0.00,,,0.00,Wunderground v.1.15,2013-03-07 07:50:00,
2013-03-07 01:55:00,26.9,22.7,30.39,NNE,24,1.0,2.0,84,0.00,,,0.00,Wunderground v.1.15,2013-03-07 07:55:00,
2013-03-07 02:00:00,27.0,22.8,30.39,NNE,25,1.0,3.0,84,0.00,,,0.00,Wunderground v.1.15,2013-03-07 08:00:00,
2013-03-07 02:06:00,27.0,22.8,30.39,NNE,23,2.0,3.0,84,0.00,,,0.00,Wunderground v.1.15,2013-03-07 08:06:00,
2013-03-07 02:12:00,27.1,22.9,30.39,NNE,21,1.0,2.0,84,0.00,,,0.00,Wunderground v.1.15,2013-03-07 08:12:00,
2013-03-07 02:18:00,27.1,22.9,30.39,North,6,2.0,6.0,84,0.00,,,0.00,Wunderground v.1.15,2013-03-07 08:18:00,
2013-03-07 02:24:00,27.1,22.9,30.39,North,349,4.0,5.0,84,0.00,,,0.00,Wunderground v.1.15,2013-03-07 08:24:00,
2013-03-07 02:30:00,27.1,22.9,30.39,North,349,3.0,3.0,84,0.00,,,0.00,Wunderground v.1.15,2013-03-07 08:30:00,
2013-03-07 02:36:00,27.0,22.8,30.39,NNW,346,1.0,3.0,84,0.00,,,0.00,Wunderground v.1.15,2013-03-07 08:36:00,
2013-03-07 02:42:00,27.0,22.8,30.39,North,349,2.0,3.0,84,0.00,,,0.00,Wunderground v.1.15,2013-03-07 08:42:00,
2013-03-07 02:48:00,27.1,22.9,30.39,North,352,2.0,3.0,84,0.00,,,0.00,Wunderground v.1.15,2013-03-07 08:48:00,
2013-03-07 02:54:00,27.0,22.8,30.39,North,349,1.0,2.0,84,0.00,,,0.00,Wunderground v.1.15,2013-03-07 08:54:00,
2013-03-07 02:59:00,27.0,22.8,30.39,North,349,0.0,2.0,84,0.00,,,0.00,Wunderground v.1.15,2013-03-07 08:59:00,
2013-03-07 03:05:00,27.0,22.8,30.39,NNW,344,0.0,3.0,84,0.00,,,0.00,Wunderground v.1.15,2013-03-07 09:05:00,
2013-03-07 03:10:00,27.0,23.1,30.39,North,350,1.0,2.0,85,0.00,,,0.00,Wunderground v.1.15,2013-03-07 09:10:00,
2013-03-07 03:16:00,27.0,23.1,30.39,NNE,19,2.0,5.0,85,0.00,,,0.00,Wunderground v.1.15,2013-03-07 09:16:00,
2013-03-07 03:22:00,27.0,22.8,30.39,NE,48,4.0,4.0,84,0.00,,,0.00,Wunderground v.1.15,2013-03-07 09:22:00,
2013-03-07 03:28:00,27.0,23.1,30.38,NE,50,2.0,4.0,85,0.00,,,0.00,Wunderground v.1.15,2013-03-07 09:28:00,
2013-03-07 03:33:00,27.0,23.1,30.38,NE,49,1.0,2.0,85,0.00,,,0.00,Wunderground v.1.15,2013-03-07 09:33:00,
2013-03-07 03:39:00,27.1,23.2,30.38,NE,50,1.0,2.0,85,0.00,,,0.00,Wunderground v.1.15,2013-03-07 09:39:00,
2013-03-07 03:45:00,27.1,23.2,30.39,NE,49,1.0,2.0,85,0.00,,,0.00,Wunderground v.1.15,2013-03-07 09:45:00,
2013-03-07 03:51:00,27.1,23.2,30.39,NE,52,1.0,1.0,85,0.00,,,0.00,Wunderground v.1.15,2013-03-07 09:51:00,
2013-03-07 03:56:00,27.2,23.3,30.39,NE,50,1.0,2.0,85,0.00,,,0.00,Wunderground v.1.15,2013-03-07 09:56:00,
2013-03-07 04:02:00,27.2,23.3,30.39,NE,48,1.0,1.0,85,0.00,,,0.00,Wunderground v.1.15,2013-03-07 10:02:00,
2013-03-07 04:08:00,27.3,23.4,30.39,NE,48,0.0,1.0,85,0.00,,,0.00,Wunderground v.1.15,2013-03-07 10:08:00,
2013-03-07 04:14:00,27.4,23.2,30.39,NE,48,0.0,0.0,84,0.00,,,0.00,Wunderground v.1.15,2013-03-07 10:14:00,
2013-03-07 04:20:00,27.4,23.2,30.39,NE,52,0.0,4.0,84,0.00,,,0.00,Wunderground v.1.15,2013-03-07 10:20:00,
2013-03-07 04:26:00,27.4,23.5,30.39,NE,50,2.0,4.0,85,0.00,,,0.00,Wunderground v.1.15,2013-03-07 10:26:00,
2013-03-07 04:31:00,27.5,23.6,30.39,NE,50,1.0,1.0,85,0.00,,,0.00,Wunderground v.1.15,2013-03-07 10:31:00,
2013-03-07 04:37:00,27.5,23.6,30.39,NE,48,0.0,1.0,85,0.00,,,0.00,Wunderground v.1.15,2013-03-07 10:37:00,
2013-03-07 04:42:00,27.4,23.5,30.39,NE,51,0.0,0.0,85,0.00,,,0.00,Wunderground v.1.15,2013-03-07 10:42:00,
2013-03-07 04:48:00,27.4,23.5,30.39,NE,51,0.0,0.0,85,0.00,,,0.00,Wunderground v.1.15,2013-03-07 10:48:00,
2013-03-07 04:54:00,27.4,23.5,30.39,NE,49,0.0,0.0,85,0.00,,,0.00,Wunderground v.1.15,2013-03-07 10:54:00,
2013-03-07 05:00:00,27.4,23.5,30.39,NE,48,0.0,0.0,85,0.00,,,0.00,Wunderground v.1.15,2013-03-07 11:00:00,
2013-03-07 05:06:00,27.4,23.5,30.39,NE,50,0.0,2.0,85,0.00,,,0.00,Wunderground v.1.15,2013-03-07 11:06:00,
2013-03-07 05:12:00,27.5,23.3,30.39,NE,50,0.0,2.0,84,0.00,,,0.00,Wunderground v.1.15,2013-03-07 11:12:00,
2013-03-07 05:18:00,27.5,23.6,30.39,NE,48,0.0,2.0,85,0.00,,,0.00,Wunderground v.1.15,2013-03-07 11:18:00,
2013-03-07 05:24:00,27.5,23.6,30.39,NE,53,0.0,0.0,85,0.00,,,0.00,Wunderground v.1.15,2013-03-07 11:24:00,
2013-03-07 05:30:00,27.6,23.4,30.40,NE,53,0.0,0.0,84,0.00,,,0.00,Wunderground v.1.15,2013-03-07 11:30:00,
2013-03-07 05:36:00,27.6,23.7,30.40,NE,48,0.0,1.0,85,0.00,,,0.00,Wunderground v.1.15,2013-03-07 11:36:00,
2013-03-07 05:42:00,27.7,23.5,30.40,NE,49,1.0,2.0,84,0.00,,,0.00,Wunderground v.1.15,2013-03-07 11:42:00,
2013-03-07 05:48:00,27.8,23.6,30.39,NE,51,1.0,3.0,84,0.00,,,0.00,Wunderground v.1.15,2013-03-07 11:48:00,
2013-03-07 05:54:00,27.9,23.7,30.40,NE,48,2.0,2.0,84,0.00,,,0.00,Wunderground v.1.15,2013-03-07 11:54:00,
2013-03-07 05:59:00,27.9,23.7,30.40,NE,50,1.0,2.0,84,0.00,,,0.00,Wunderground v.1.15,2013-03-07 11:59:00,
2013-03-07 06:05:00,28.0,23.8,30.40,NE,50,1.0,3.0,84,0.00,,,0.00,Wunderground v.1.15,2013-03-07 12:05:00,
2013-03-07 06:11:00,28.0,23.5,30.41,NE,47,1.0,2.0,83,0.00,,,0.00,Wunderground v.1.15,2013-03-07 12:11:00,
2013-03-07 06:17:00,28.1,23.6,30.40,SE,141,1.0,2.0,83,0.00,,,0.00,Wunderground v.1.15,2013-03-07 12:17:00,
2013-03-07 06:23:00,28.2,23.7,30.40,East,101,2.0,4.0,83,0.00,,,0.00,Wunderground v.1.15,2013-03-07 12:23:00,
2013-03-07 06:29:00,28.3,23.8,30.40,ESE,122,2.0,4.0,83,0.00,,,0.00,Wunderground v.1.15,2013-03-07 12:29:00,
2013-03-07 06:34:00,28.4,23.9,30.40,ESE,121,2.0,4.0,83,0.00,,,0.00,Wunderground v.1.15,2013-03-07 12:34:00,
2013-03-07 06:40:00,28.5,24.0,30.40,ESE,121,2.0,5.0,83,0.00,,,0.00,Wunderground v.1.15,2013-03-07 12:40:00,
2013-03-07 06:45:00,28.6,23.8,30.40,ESE,119,3.0,5.0,82,0.00,,,0.00,Wunderground v.1.15,2013-03-07 12:45:00,
2013-03-07 06:51:00,28.7,23.6,30.39,ESE,111,4.0,6.0,81,0.00,,,0.00,Wunderground v.1.15,2013-03-07 12:51:00,
2013-03-07 06:57:00,28.8,24.0,30.39,ESE,112,5.0,6.0,82,0.00,,,0.00,Wunderground v.1.15,2013-03-07 12:57:00,
2013-03-07 07:02:00,28.9,24.1,30.40,ESE,115,3.0,5.0,82,0.00,,,0.00,Wunderground v.1.15,2013-03-07 13:02:00,
2013-03-07 07:08:00,29.0,23.9,30.40,SE,131,4.0,6.0,81,0.00,,,0.00,Wunderground v.1.15,2013-03-07 13:08:00,
2013-03-07 07:14:00,29.2,24.1,30.41,ESE,123,4.0,4.0,81,0.00,,,0.00,Wunderground v.1.15,2013-03-07 13:14:00,
2013-03-07 07:20:00,29.2,23.8,30.42,SE,127,4.0,4.0,80,0.00,,,0.00,Wunderground v.1.15,2013-03-07 13:20:00,
2013-03-07 07:25:00,29.3,23.9,30.42,SE,130,4.0,4.0,80,0.00,,,0.00,Wunderground v.1.15,2013-03-07 13:25:00,
2013-03-07 07:31:00,29.4,24.0,30.43,SE,141,3.0,3.0,80,0.00,,,0.00,Wunderground v.1.15,2013-03-07 13:31:00,
2013-03-07 07:37:00,29.6,24.2,30.43,ESE,117,2.0,5.0,80,0.00,,,0.00,Wunderground v.1.15,2013-03-07 13:37:00,
2013-03-07 07:43:00,29.6,24.2,30.43,ESE,113,3.0,5.0,80,0.00,,,0.00,Wunderground v.1.15,2013-03-07 13:43:00,
2013-03-07 07:49:00,29.7,24.3,30.43,ESE,111,4.0,6.0,80,0.00,,,0.00,Wunderground v.1.15,2013-03-07 13:49:00,
2013-03-07 07:55:00,29.8,24.4,30.43,ESE,123,4.0,7.0,80,0.00,,,0.00,Wunderground v.1.15,2013-03-07 13:55:00,
2013-03-07 08:00:00,29.9,24.2,30.43,SE,125,3.0,3.0,79,0.00,,,0.00,Wunderground v.1.15,2013-03-07 14:00:00,
2013-03-07 08:06:00,30.0,24.3,30.43,East,98,4.0,7.0,79,0.00,,,0.00,Wunderground v.1.15,2013-03-07 14:06:00,
2013-03-07 08:11:00,30.0,24.3,30.43,East,93,5.0,8.0,79,0.00,,,0.00,Wunderground v.1.15,2013-03-07 14:11:00,
2013-03-07 08:17:00,30.0,24.3,30.43,ESE,105,5.0,8.0,79,0.00,,,0.00,Wunderground v.1.15,2013-03-07 14:17:00,
2013-03-07 08:23:00,30.1,24.4,30.43,SE,136,4.0,5.0,79,0.00,,,0.00,Wunderground v.1.15,2013-03-07 14:23:00,
2013-03-07 08:29:00,30.1,24.4,30.43,SE,141,5.0,5.0,79,0.00,,,0.00,Wunderground v.1.15,2013-03-07 14:29:00,
2013-03-07 08:35:00,30.4,25.0,30.43,SE,127,3.0,5.0,80,0.00,,,0.00,Wunderground v.1.15,2013-03-07 14:35:00,
2013-03-07 08:41:00,30.5,24.8,30.43,SE,125,4.0,4.0,79,0.00,,,0.00,Wunderground v.1.15,2013-03-07 14:41:00,
2013-03-07 08:47:00,30.6,24.6,30.44,SE,126,4.0,6.0,78,0.00,,,0.00,Wunderground v.1.15,2013-03-07 14:47:00,
2013-03-07 08:53:00,30.7,24.7,30.44,ESE,123,4.0,5.0,78,0.00,,,0.00,Wunderground v.1.15,2013-03-07 14:53:00,
2013-03-07 08:59:00,30.9,24.8,30.44,ESE,118,5.0,7.0,78,0.00,,,0.00,Wunderground v.1.15,2013-03-07 14:59:00,
2013-03-07 09:04:00,31.1,25.0,30.44,ESE,119,5.0,6.0,78,0.00,,,0.00,Wunderground v.1.15,2013-03-07 15:04:00,
2013-03-07 09:10:00,31.1,24.7,30.44,ENE,78,4.0,5.0,77,0.00,,,0.00,Wunderground v.1.15,2013-03-07 15:10:00,
2013-03-07 09:16:00,31.2,25.1,30.44,ESE,104,4.0,8.0,78,0.00,,,0.00,Wunderground v.1.15,2013-03-07 15:16:00,
2013-03-07 09:22:00,31.3,25.2,30.44,ESE,109,4.0,4.0,78,0.00,,,0.00,Wunderground v.1.15,2013-03-07 15:22:00,
2013-03-07 09:28:00,31.4,25.0,30.44,ESE,119,4.0,6.0,77,0.00,,,0.00,Wunderground v.1.15,2013-03-07 15:28:00,
2013-03-07 09:34:00,31.5,25.1,30.44,SE,128,4.0,7.0,77,0.00,,,0.00,Wunderground v.1.15,2013-03-07 15:34:00,
2013-03-07 09:39:00,31.7,25.6,30.44,SE,141,3.0,7.0,78,0.00,,,0.00,Wunderground v.1.15,2013-03-07 15:39:00,
2013-03-07 09:45:00,31.8,25.4,30.45,SE,132,3.0,6.0,77,0.00,,,0.00,Wunderground v.1.15,2013-03-07 15:45:00,
2013-03-07 09:51:00,32.0,25.3,30.45,SE,146,4.0,4.0,76,0.00,,,0.00,Wunderground v.1.15,2013-03-07 15:51:00,
2013-03-07 09:57:00,32.0,25.3,30.44,SSE,150,4.0,7.0,76,0.00,,,0.00,Wunderground v.1.15,2013-03-07 15:57:00,
2013-03-07 10:03:00,32.0,25.3,30.45,SSE,152,5.0,5.0,76,0.00,,,0.00,Wunderground v.1.15,2013-03-07 16:03:00,
2013-03-07 10:09:00,32.0,25.6,30.45,SSE,151,4.0,5.0,77,0.00,,,0.00,Wunderground v.1.15,2013-03-07 16:09:00,
2013-03-07 10:14:00,32.2,25.5,30.45,SSE,150,3.0,4.0,76,0.00,,,0.00,Wunderground v.1.15,2013-03-07 16:14:00,
2013-03-07 10:20:00,32.3,25.3,30.45,SSE,155,4.0,6.0,75,0.00,,,0.00,Wunderground v.1.15,2013-03-07 16:20:00,
2013-03-07 10:26:00,32.3,25.6,30.45,SSE,150,5.0,6.0,76,0.00,,,0.00,Wunderground v.1.15,2013-03-07 16:26:00,
2013-03-07 10:31:00,32.4,26.0,30.45,SE,127,4.0,5.0,77,0.00,,,0.00,Wunderground v.1.15,2013-03-07 16:31:00,
2013-03-07 10:37:00,32.7,26.0,30.44,ESE,104,4.0,8.0,76,0.00,,,0.00,Wunderground v.1.15,2013-03-07 16:37:00,
2013-03-07 10:43:00,33.2,25.8,30.44,ESE,122,5.0,7.0,74,0.00,,,0.00,Wunderground v.1.15,2013-03-07 16:43:00,
2013-03-07 10:49:00,33.0,25.6,30.44,ESE,123,5.0,7.0,74,0.00,,,0.00,Wunderground v.1.15,2013-03-07 16:49:00,
2013-03-07 10:55:00,33.2,26.1,30.43,ESE,114,3.0,7.0,75,0.00,,,0.00,Wunderground v.1.15,2013-03-07 16:55:00,
2013-03-07 11:00:00,33.8,26.4,30.43,SE,131,4.0,7.0,74,0.00,,,0.00,Wunderground v.1.15,2013-03-07 17:00:00,
2013-03-07 11:06:00,34.4,26.6,30.43,SE,136,5.0,9.0,73,0.00,,,0.00,Wunderground v.1.15,2013-03-07 17:06:00,
2013-03-07 11:11:00,34.7,26.3,30.43,SE,129,6.0,9.0,71,0.00,,,0.00,Wunderground v.1.15,2013-03-07 17:11:00,
2013-03-07 11:17:00,34.2,26.4,30.43,ESE,110,6.0,9.0,73,0.00,,,0.00,Wunderground v.1.15,2013-03-07 17:17:00,
2013-03-07 11:23:00,34.5,26.7,30.43,South,169,5.0,6.0,73,0.00,,,0.00,Wunderground v.1.15,2013-03-07 17:23:00,
2013-03-07 11:29:00,34.6,26.8,30.43,ESE,123,4.0,6.0,73,0.00,,,0.00,Wunderground v.1.15,2013-03-07 17:29:00,
2013-03-07 11:35:00,34.5,26.7,30.43,ESE,119,5.0,6.0,73,0.00,,,0.00,Wunderground v.1.15,2013-03-07 17:35:00,
2013-03-07 11:41:00,34.4,27.0,30.43,ESE,114,5.0,6.0,74,0.00,,,0.00,Wunderground v.1.15,2013-03-07 17:41:00,
2013-03-07 11:47:00,34.7,26.6,30.42,ESE,120,4.0,6.0,72,0.00,,,0.00,Wunderground v.1.15,2013-03-07 17:47:00,
2013-03-07 11:53:00,34.6,27.2,30.42,East,81,3.0,6.0,74,0.00,,,0.00,Wunderground v.1.15,2013-03-07 17:53:00,
2013-03-07 11:59:00,35.3,27.8,30.42,SSE,159,4.0,6.0,74,0.00,,,0.00,Wunderground v.1.15,2013-03-07 17:59:00,
2013-03-07 12:04:00,35.7,27.6,30.41,ENE,78,5.0,9.0,72,0.00,,,0.00,Wunderground v.1.15,2013-03-07 18:04:00,
2013-03-07 12:10:00,35.3,27.2,30.41,ESE,108,6.0,6.0,72,0.00,,,0.00,Wunderground v.1.15,2013-03-07 18:10:00,
2013-03-07 12:16:00,35.2,27.7,30.42,ESE,112,5.0,6.0,74,0.00,,,0.00,Wunderground v.1.15,2013-03-07 18:16:00,
2013-03-07 12:22:00,35.1,27.3,30.41,SE,141,5.0,6.0,73,0.00,,,0.00,Wunderground v.1.15,2013-03-07 18:22:00,
2013-03-07 12:28:00,35.5,27.4,30.41,SE,141,6.0,8.0,72,0.00,,,0.00,Wunderground v.1.15,2013-03-07 18:28:00,
2013-03-07 12:34:00,35.9,27.7,30.41,SE,141,4.0,6.0,72,0.00,,,0.00,Wunderground v.1.15,2013-03-07 18:34:00,
2013-03-07 12:39:00,36.3,28.5,30.41,East,91,3.0,9.0,73,0.00,,,0.00,Wunderground v.1.15,2013-03-07 18:39:00,
2013-03-07 12:44:00,36.1,27.9,30.40,SE,141,5.0,11.0,72,0.00,,,0.00,Wunderground v.1.15,2013-03-07 18:44:00,
2013-03-07 12:50:00,36.0,27.8,30.40,ENE,77,6.0,6.0,72,0.00,,,0.00,Wunderground v.1.15,2013-03-07 18:50:00,
2013-03-07 12:56:00,35.8,28.0,30.40,ESE,119,5.0,6.0,73,0.00,,,0.00,Wunderground v.1.15,2013-03-07 18:56:00,
2013-03-07 13:02:00,35.8,28.3,30.39,East,88,5.0,9.0,74,0.00,,,0.00,Wunderground v.1.15,2013-03-07 19:02:00,
2013-03-07 13:07:00,35.8,28.6,30.39,East,87,5.0,9.0,75,0.00,,,0.00,Wunderground v.1.15,2013-03-07 19:07:00,
2013-03-07 13:13:00,36.1,28.6,30.39,East,87,5.0,10.0,74,0.00,,,0.00,Wunderground v.1.15,2013-03-07 19:13:00,
2013-03-07 13:18:00,36.4,28.6,30.39,SE,127,6.0,10.0,73,0.00,,,0.00,Wunderground v.1.15,2013-03-07 19:18:00,
2013-03-07 13:24:00,36.5,28.7,30.39,SE,125,5.0,6.0,73,0.00,,,0.00,Wunderground v.1.15,2013-03-07 19:24:00,
2013-03-07 13:30:00,36.9,29.4,30.39,ESE,120,4.0,5.0,74,0.00,,,0.00,Wunderground v.1.15,2013-03-07 19:30:00,
2013-03-07 13:36:00,37.1,29.2,30.39,SE,141,5.0,10.0,73,0.00,,,0.00,Wunderground v.1.15,2013-03-07 19:36:00,
2013-03-07 13:42:00,37.1,29.6,30.39,ESE,105,5.0,6.0,74,0.00,,,0.00,Wunderground v.1.15,2013-03-07 19:42:00,
2013-03-07 13:47:00,37.2,29.3,30.38,East,93,4.0,6.0,73,0.00,,,0.00,Wunderground v.1.15,2013-03-07 19:47:00,
2013-03-07 13:53:00,37.1,29.2,30.38,ENE,65,5.0,8.0,73,0.00,,,0.00,Wunderground v.1.15,2013-03-07 19:53:00,
2013-03-07 13:59:00,37.3,29.8,30.37,East,87,6.0,8.0,74,0.00,,,0.00,Wunderground v.1.15,2013-03-07 19:59:00,
2013-03-07 14:04:00,37.5,30.0,30.37,ESE,119,5.0,6.0,74,0.00,,,0.00,Wunderground v.1.15,2013-03-07 20:04:00,
2013-03-07 14:10:00,37.8,29.9,30.37,ENE,71,6.0,6.0,73,0.00,,,0.00,Wunderground v.1.15,2013-03-07 20:10:00,
2013-03-07 14:16:00,37.9,30.0,30.37,East,88,5.0,9.0,73,0.00,,,0.00,Wunderground v.1.15,2013-03-07 20:16:00,
2013-03-07 14:22:00,38.0,30.4,30.37,SE,141,5.0,7.0,74,0.00,,,0.00,Wunderground v.1.15,2013-03-07 20:22:00,
2013-03-07 14:27:00,38.7,30.8,30.37,SE,141,5.0,7.0,73,0.00,,,0.00,Wunderground v.1.15,2013-03-07 20:27:00,
2013-03-07 14:33:00,39.2,30.2,30.37,ESE,121,4.0,5.0,70,0.00,,,0.00,Wunderground v.1.15,2013-03-07 20:33:00,
2013-03-07 14:39:00,39.1,30.1,30.37,SSE,157,4.0,9.0,70,0.00,,,0.00,Wunderground v.1.15,2013-03-07 20:39:00,
2013-03-07 14:45:00,39.6,31.0,30.38,SE,141,5.0,5.0,71,0.00,,,0.00,Wunderground v.1.15,2013-03-07 20:45:00,
2013-03-07 14:51:00,39.5,30.9,30.38,SE,141,4.0,4.0,71,0.00,,,0.00,Wunderground v.1.15,2013-03-07 20:51:00,
2013-03-07 14:56:00,39.6,31.0,30.38,ENE,78,4.0,7.0,71,0.00,,,0.00,Wunderground v.1.15,2013-03-07 20:56:00,
2013-03-07 15:02:00,39.0,31.1,30.38,ESE,105,5.0,7.0,73,0.00,,,0.00,Wunderground v.1.15,2013-03-07 21:02:00,
2013-03-07 15:07:00,39.5,31.2,30.38,ESE,106,4.0,7.0,72,0.00,,,0.00,Wunderground v.1.15,2013-03-07 21:07:00,
2013-03-07 15:13:00,39.4,30.8,30.38,East,97,4.0,10.0,71,0.00,,,0.00,Wunderground v.1.15,2013-03-07 21:13:00,
2013-03-07 15:19:00,39.0,30.7,30.38,East,97,4.0,10.0,72,0.00,,,0.00,Wunderground v.1.15,2013-03-07 21:19:00,
2013-03-07 15:25:00,38.8,30.5,30.38,East,96,3.0,6.0,72,0.00,,,0.00,Wunderground v.1.15,2013-03-07 21:25:00,
2013-03-07 15:31:00,39.1,31.2,30.37,East,97,3.0,4.0,73,0.00,,,0.00,Wunderground v.1.15,2013-03-07 21:31:00,
2013-03-07 15:37:00,39.3,31.4,30.37,East,96,3.0,6.0,73,0.00,,,0.00,Wunderground v.1.15,2013-03-07 21:37:00,
2013-03-07 15:43:00,39.5,31.9,30.37,NE,42,5.0,8.0,74,0.00,,,0.00,Wunderground v.1.15,2013-03-07 21:43:00,
2013-03-07 15:48:00,39.5,31.9,30.37,ENE,67,5.0,9.0,74,0.00,,,0.00,Wunderground v.1.15,2013-03-07 21:48:00,
2013-03-07 15:54:00,39.3,31.4,30.37,ENE,77,4.0,7.0,73,0.00,,,0.00,Wunderground v.1.15,2013-03-07 21:54:00,
2013-03-07 15:59:00,39.2,31.9,30.36,East,81,5.0,7.0,75,0.00,,,0.00,Wunderground v.1.15,2013-03-07 21:59:00,
2013-03-07 16:04:00,39.2,31.3,30.36,East,84,5.0,7.0,73,0.00,,,0.00,Wunderground v.1.15,2013-03-07 22:04:00,
2013-03-07 16:09:00,39.1,31.5,30.36,East,79,5.0,7.0,74,0.00,,,0.00,Wunderground v.1.15,2013-03-07 22:09:00,
2013-03-07 16:15:00,39.0,31.7,30.36,East,81,6.0,9.0,75,0.00,,,0.00,Wunderground v.1.15,2013-03-07 22:15:00,
2013-03-07 16:21:00,39.1,31.8,30.36,East,100,6.0,6.0,75,0.00,,,0.00,Wunderground v.1.15,2013-03-07 22:21:00,
2013-03-07 16:27:00,39.5,31.9,30.36,East,91,5.0,7.0,74,0.00,,,0.00,Wunderground v.1.15,2013-03-07 22:27:00,
2013-03-07 16:33:00,39.3,31.7,30.36,East,87,6.0,9.0,74,0.00,,,0.00,Wunderground v.1.15,2013-03-07 22:33:00,
2013-03-07 16:39:00,39.1,31.8,30.36,East,87,7.0,9.0,75,0.00,,,0.00,Wunderground v.1.15,2013-03-07 22:39:00,
2013-03-07 16:45:00,39.1,31.8,30.36,East,93,8.0,11.0,75,0.00,,,0.00,Wunderground v.1.15,2013-03-07 22:45:00,
2013-03-07 16:51:00,39.2,31.9,30.36,East,98,6.0,9.0,75,0.00,,,0.00,Wunderground v.1.15,2013-03-07 22:51:00,
2013-03-07 16:57:00,39.0,31.7,30.36,East,93,7.0,9.0,75,0.00,,,0.00,Wunderground v.1.15,2013-03-07 22:57:00,
2013-03-07 17:03:00,38.9,31.6,30.36,East,100,6.0,9.0,75,0.00,,,0.00,Wunderground v.1.15,2013-03-07 23:03:00,
2013-03-07 17:08:00,38.6,31.4,30.36,East,92,7.0,12.0,75,0.00,,,0.00,Wunderground v.1.15,2013-03-07 23:08:00,
2013-03-07 17:14:00,38.5,31.6,30.36,East,90,8.0,11.0,76,0.00,,,0.00,Wunderground v.1.15,2013-03-07 23:14:00,
2013-03-07 17:20:00,38.4,31.5,30.36,ENE,62,7.0,7.0,76,0.00,,,0.00,Wunderground v.1.15,2013-03-07 23:20:00,
2013-03-07 17:26:00,38.3,31.7,30.36,East,79,7.0,9.0,77,0.00,,,0.00,Wunderground v.1.15,2013-03-07 23:26:00,
2013-03-07 17:32:00,38.1,31.2,30.37,East,79,6.0,8.0,76,0.00,,,0.00,Wunderground v.1.15,2013-03-07 23:32:00,
2013-03-07 17:38:00,37.9,31.0,30.36,ENE,77,6.0,8.0,76,0.00,,,0.00,Wunderground v.1.15,2013-03-07 23:38:00,
2013-03-07 17:43:00,37.7,31.1,30.37,East,83,6.0,9.0,77,0.00,,,0.00,Wunderground v.1.15,2013-03-07 23:43:00,
2013-03-07 17:49:00,37.5,31.3,30.37,East,83,6.0,9.0,78,0.00,,,0.00,Wunderground v.1.15,2013-03-07 23:49:00,
2013-03-07 17:55:00,37.3,31.4,30.37,SE,141,6.0,9.0,79,0.00,,,0.00,Wunderground v.1.15,2013-03-07 23:55:00,
2013-03-07 18:00:00,37.1,31.5,30.37,ENE,75,6.0,9.0,80,0.00,,,0.00,Wunderground v.1.15,2013-03-08 00:00:00,
2013-03-07 18:05:00,36.9,31.3,30.37,ENE,76,6.0,9.0,80,0.00,,,0.00,Wunderground v.1.15,2013-03-08 00:05:00,
2013-03-07 18:11:00,36.6,31.0,30.38,ENE,78,6.0,6.0,80,0.00,,,0.00,Wunderground v.1.15,2013-03-08 00:11:00,
2013-03-07 18:17:00,36.4,31.1,30.38,ENE,69,6.0,9.0,81,0.00,,,0.00,Wunderground v.1.15,2013-03-08 00:17:00,
2013-03-07 18:23:00,36.1,30.8,30.38,ENE,77,5.0,6.0,81,0.00,,,0.00,Wunderground v.1.15,2013-03-08 00:23:00,
2013-03-07 18:29:00,36.0,30.7,30.38,East,80,5.0,7.0,81,0.00,,,0.00,Wunderground v.1.15,2013-03-08 00:29:00,
2013-03-07 18:35:00,35.9,30.9,30.38,East,81,5.0,8.0,82,0.00,,,0.00,Wunderground v.1.15,2013-03-08 00:35:00,
2013-03-07 18:41:00,35.7,30.7,30.38,East,80,5.0,5.0,82,0.00,,,0.00,Wunderground v.1.15,2013-03-08 00:41:00,
2013-03-07 18:46:00,35.5,30.8,30.38,ENE,77,4.0,6.0,83,0.00,,,0.00,Wunderground v.1.15,2013-03-08 00:46:00,
2013-03-07 18:52:00,35.4,30.8,30.38,ENE,71,5.0,6.0,83,0.00,,,0.00,Wunderground v.1.15,2013-03-08 00:52:00,
2013-03-07 18:58:00,35.4,30.8,30.38,East,81,5.0,8.0,83,0.00,,,0.00,Wunderground v.1.15,2013-03-08 00:58:00,
2013-03-07 19:04:00,35.3,30.7,30.38,ENE,70,5.0,7.0,83,0.00,,,0.00,Wunderground v.1.15,2013-03-08 01:04:00,
2013-03-07 19:10:00,35.2,30.9,30.38,ENE,78,6.0,6.0,84,0.00,,,0.00,Wunderground v.1.15,2013-03-08 01:10:00,
2013-03-07 19:16:00,34.9,30.6,30.38,ENE,76,6.0,8.0,84,0.00,,,0.00,Wunderground v.1.15,2013-03-08 01:16:00,
2013-03-07 19:22:00,34.7,30.7,30.38,ENE,65,6.0,8.0,85,0.00,,,0.00,Wunderground v.1.15,2013-03-08 01:22:00,
2013-03-07 19:28:00,34.5,30.5,30.38,ENE,68,6.0,8.0,85,0.00,,,0.00,Wunderground v.1.15,2013-03-08 01:28:00,
2013-03-07 19:34:00,34.3,30.5,30.38,East,81,6.0,10.0,86,0.00,,,0.00,Wunderground v.1.15,2013-03-08 01:34:00,
2013-03-07 19:40:00,34.3,30.5,30.38,SE,141,7.0,8.0,86,0.00,,,0.00,Wunderground v.1.15,2013-03-08 01:40:00,
2013-03-07 19:47:00,34.1,30.4,30.38,East,81,8.0,10.0,86,0.00,,,0.00,Wunderground v.1.15,2013-03-08 01:47:00,
2013-03-07 19:53:00,33.9,30.2,30.37,East,87,7.0,9.0,86,0.00,,,0.00,Wunderground v.1.15,2013-03-08 01:53:00,
2013-03-07 19:59:00,33.8,30.1,30.38,ENE,69,7.0,9.0,86,0.00,,,0.00,Wunderground v.1.15,2013-03-08 01:59:00,
2013-03-07 20:05:00,33.8,30.1,30.37,ENE,73,8.0,11.0,86,0.00,,,0.00,Wunderground v.1.15,2013-03-08 02:05:00,
2013-03-07 20:11:00,33.7,30.0,30.38,East,80,8.0,8.0,86,0.00,,,0.00,Wunderground v.1.15,2013-03-08 02:11:00,
2013-03-07 20:17:00,33.5,29.8,30.38,East,89,6.0,8.0,86,0.00,,,0.00,Wunderground v.1.15,2013-03-08 02:17:00,
2013-03-07 20:23:00,33.5,29.8,30.38,East,79,6.0,8.0,86,0.00,,,0.00,Wunderground v.1.15,2013-03-08 02:23:00,
2013-03-07 20:29:00,33.4,29.7,30.38,ENE,77,6.0,9.0,86,0.00,,,0.00,Wunderground v.1.15,2013-03-08 02:29:00,
2013-03-07 20:35:00,33.3,29.6,30.38,ENE,71,6.0,8.0,86,0.00,,,0.00,Wunderground v.1.15,2013-03-08 02:35:00,
2013-03-07 20:41:00,33.2,29.5,30.38,ENE,77,6.0,6.0,86,0.00,,,0.00,Wunderground v.1.15,2013-03-08 02:41:00,
2013-03-07 20:47:00,33.1,29.4,30.38,East,97,6.0,9.0,86,0.00,,,0.00,Wunderground v.1.15,2013-03-08 02:47:00,
2013-03-07 20:52:00,33.0,29.3,30.38,East,90,6.0,6.0,86,0.00,,,0.00,Wunderground v.1.15,2013-03-08 02:52:00,
2013-03-07 20:58:00,32.9,29.2,30.38,East,97,5.0,7.0,86,0.00,,,0.00,Wunderground v.1.15,2013-03-08 02:58:00,
2013-03-07 21:04:00,32.8,29.4,30.39,East,81,5.0,8.0,87,0.00,,,0.00,Wunderground v.1.15,2013-03-08 03:04:00,
2013-03-07 21:10:00,32.7,29.3,30.39,East,85,5.0,5.0,87,0.00,,,0.00,Wunderground v.1.15,2013-03-08 03:10:00,
2013-03-07 21:15:00,32.6,29.2,30.39,East,92,5.0,7.0,87,0.00,,,0.00,Wunderground v.1.15,2013-03-08 03:15:00,
2013-03-07 21:21:00,32.6,29.2,30.39,East,96,5.0,7.0,87,0.00,,,0.00,Wunderground v.1.15,2013-03-08 03:21:00,
2013-03-07 21:27:00,32.5,29.1,30.39,East,85,5.0,7.0,87,0.00,,,0.00,Wunderground v.1.15,2013-03-08 03:27:00,
2013-03-07 21:32:00,32.5,29.1,30.39,East,82,5.0,6.0,87,0.00,,,0.00,Wunderground v.1.15,2013-03-08 03:32:00,
2013-03-07 21:38:00,32.5,29.1,30.39,East,84,5.0,6.0,87,0.00,,,0.00,Wunderground v.1.15,2013-03-08 03:38:00,
2013-03-07 21:44:00,32.4,29.0,30.39,East,87,5.0,7.0,87,0.00,,,0.00,Wunderground v.1.15,2013-03-08 03:44:00,
2013-03-07 21:50:00,32.4,29.0,30.39,East,95,5.0,5.0,87,0.00,,,0.00,Wunderground v.1.15,2013-03-08 03:50:00,
2013-03-07 21:56:00,32.4,29.0,30.39,ESE,105,5.0,6.0,87,0.00,,,0.00,Wunderground v.1.15,2013-03-08 03:56:00,
2013-03-07 22:02:00,32.3,29.1,30.39,ESE,103,5.0,7.0,88,0.00,,,0.00,Wunderground v.1.15,2013-03-08 04:02:00,
2013-03-07 22:07:00,32.3,29.1,30.39,ESE,110,5.0,9.0,88,0.00,,,0.00,Wunderground v.1.15,2013-03-08 04:07:00,
2013-03-07 22:13:00,32.3,29.1,30.39,East,99,5.0,5.0,88,0.00,,,0.00,Wunderground v.1.15,2013-03-08 04:13:00,
2013-03-07 22:18:00,32.2,29.0,30.39,ESE,111,5.0,6.0,88,0.00,,,0.00,Wunderground v.1.15,2013-03-08 04:18:00,
2013-03-07 22:23:00,32.2,29.0,30.39,ESE,105,5.0,6.0,88,0.00,,,0.00,Wunderground v.1.15,2013-03-08 04:23:00,
2013-03-07 22:29:00,32.2,29.0,30.39,ESE,119,4.0,8.0,88,0.00,,,0.00,Wunderground v.1.15,2013-03-08 04:29:00,
2013-03-07 22:35:00,32.2,28.8,30.39,ESE,121,4.0,7.0,87,0.00,,,0.00,Wunderground v.1.15,2013-03-08 04:35:00,
2013-03-07 22:40:00,32.1,28.7,30.39,ESE,116,4.0,4.0,87,0.00,,,0.00,Wunderground v.1.15,2013-03-08 04:40:00,
2013-03-07 22:46:00,32.1,28.7,30.39,ESE,114,4.0,6.0,87,0.00,,,0.00,Wunderground v.1.15,2013-03-08 04:46:00,
2013-03-07 22:52:00,32.1,28.7,30.39,ESE,114,4.0,6.0,87,0.00,,,0.00,Wunderground v.1.15,2013-03-08 04:52:00,
2013-03-07 22:58:00,32.1,28.7,30.39,ESE,105,4.0,8.0,87,0.00,,,0.00,Wunderground v.1.15,2013-03-08 04:58:00,
2013-03-07 23:00:00,32.1,28.7,30.39,East,98,5.0,5.0,87,0.00,,,0.00,Wunderground v.1.15,2013-03-08 05:00:00,
2013-03-07 23:02:00,32.1,28.7,30.39,East,101,5.0,5.0,87,0.00,,,0.00,Wunderground v.1.15,2013-03-08 05:02:00,
2013-03-07 23:08:00,32.1,28.7,30.39,East,100,5.0,7.0,87,0.00,,,0.00,Wunderground v.1.15,2013-03-08 05:08:00,
2013-03-07 23:09:00,32.1,28.7,30.39,ESE,102,5.0,7.0,87,0.00,,,0.00,Wunderground v.1.15,2013-03-08 05:09:00,
2013-03-07 23:14:00,32.0,28.6,30.39,East,98,5.0,5.0,87,0.00,,,0.00,Wunderground v.1.15,2013-03-08 05:14:00,
2013-03-07 23:20:00,32.0,28.6,30.39,East,93,5.0,5.0,87,0.00,,,0.00,Wunderground v.1.15,2013-03-08 05:20:00,
2013-03-07 23:26:00,31.9,28.5,30.39,East,90,5.0,6.0,87,0.00,,,0.00,Wunderground v.1.15,2013-03-08 05:26:00,
2013-03-07 23:32:00,31.9,28.8,30.39,East,87,5.0,9.0,88,0.00,,,0.00,Wunderground v.1.15,2013-03-08 05:32:00,
2013-03-07 23:37:00,31.8,28.7,30.39,East,99,5.0,9.0,88,0.00,,,0.00,Wunderground v.1.15,2013-03-08 05:37:00,
2013-03-07 23:43:00,31.8,28.7,30.39,East,94,5.0,7.0,88,0.00,,,0.00,Wunderground v.1.15,2013-03-08 05:43:00,
2013-03-07 23:49:00,31.9,28.8,30.39,East,93,6.0,7.0,88,0.00,,,0.00,Wunderground v.1.15,2013-03-08 05:49:00,
2013-03-07 23:55:00,31.8,28.7,30.40,ENE,78,5.0,7.0,88,0.00,,,0.00,Wunderground v.1.15,2013-03-08 05:55:00,